QPF
0.03 0.03 0.03 0.03 0.05 0.07 0.07 0.05 0.03 0.03 0.03 0.03 0.02 0.03 0.03 0.03 0.03 0.04 0.04 0.04 0.03 0.03 0.03 0.02 0.02 0.02 0.02 0.01 0.02 0.02 0.03 0.03 0.03 0.01 0.01 0.01 0.01 0.02 0.02 0.02 0.01 0.01 0.01
0.03 0.03 0.03 0.02 0.03 0.05 0.06 0.06 0.04 0.03 0.03 0.03 0.02 0.02 0.02 0.02 0.02 0.02 0.03 0.03 0.04 0.03 0.03 0.02 0.02 0.02 0.02 0.01 0.02 0.02 0.03 0.03 0.02 0.02 0.02 0.01 0.01 0.01 0.01 0.02 0.02 0.01 0.01
0.03 0.03 0.04 0.03 0.02 0.03 0.04 0.05 0.04 0.03 0.03 0.03 0.02 0.02 0.01 0.01 0.01 0.02 0.02 0.02 0.02 0.03 0.03 0.03 0.02 0.02 0.02 0.02 0.02 0.02 0.03 0.03 0.03 0.02 0.02 0.02 0.01 0.01 0.01 0.02 0.02 0.02 0.01
0.03 0.03 0.03 0.04 0.03 0.03 0.03 0.03 0.04 0.03 0.03 0.03 0.03 0.02 0.01 0.01 0.01 0.02 0.02 0.01 0.01 0.01 0.02 0.03 0.03 0.03 0.02 0.02 0.02 0.02 0.02 0.02 0.02 0.02 0.02 0.03 0.02 0.02 0.02 0.02 0.02 0.02 0.01
0.03 0.04 0.05 0.06 0.06 0.05 0.04 0.04 0.04 0.04 0.03 0.02 0.02 0.02 0.02 0.02 0.01 0.01 0.02 0.02 0.01 0.01 0.01 0.01 0.02 0.03 0.03 0.02 0.02 0.02 0.02 0.02 0.03 0.03 0.03 0.03 0.03 0.03 0.03 0.02 0.02 0.02 0.01
0.02 0.04 0.06 0.07 0.08 0.08 0.06 0.04 0.04 0.04 0.03 0.02 0.02 0.02 0.02 0.02 0.02 0.02 0.02 0.02 0.02 0.01 0.01 0.01 0.01 0.01 0.02 0.02 0.02 0.02 0.03 0.02 0.03 0.03 0.03 0.02 0.02 0.02 0.02 0.02 0.02 0.02 0.02
0.02 0.02 0.04 0.06 0.09 0.11 0.09 0.06 0.05 0.04 0.04 0.03 0.03 0.03 0.03 0.02 0.03 0.02 0.02 0.02 0.02 0.02 0.01 0.01 0.01 0.01 0.01 0.01 0.02 0.02 0.02 0.03 0.03 0.02 0.02 0.02 0.02 0.02 0.02 0.02 0.02 0.02 0.01
0.03 0.03 0.04 0.05 0.07 0.09 0.10 0.09 0.07 0.06 0.05 0.05 0.03 0.03 0.03 0.03 0.03 0.02 0.02 0.02 0.02 0.02 0.02 0.01 0.01 0.01 0.01 0.01 0.02 0.02 0.02 0.02 0.02 0.02 0.02 0.02 0.02 0.02 0.02 0.02 0.02 0.02 0.02
0.04 0.03 0.03 0.04 0.05 0.07 0.09 0.08 0.07 0.07 0.06 0.06 0.05 0.04 0.04 0.05 0.04 0.03 0.03 0.02 0.02 0.03 0.03 0.02 0.01 0.01 0.02 0.02 0.02 0.02 0.02 0.02 0.01 0.01 0.02 0.02 0.02 0.02 0.02 0.02 0.02 0.02 0.02
0.03 0.03 0.03 0.04 0.05 0.07 0.07 0.07 0.07 0.06 0.06 0.06 0.06 0.05 0.05 0.05 0.05 0.04 0.04 0.03 0.03 0.03 0.04 0.03 0.03 0.02 0.02 0.02 0.02 0.02 0.02 0.01 0.01 0.01 0.01 0.01 0.01 0.02 0.02 0.02 0.02 0.02 0.02
0.03 0.03 0.03 0.03 0.05 0.06 0.06 0.06 0.06 0.06 0.05 0.06 0.06 0.05 0.04 0.05 0.05 0.05 0.05 0.04 0.04 0.04 0.04 0.04 0.03 0.02 0.02 0.02 0.02 0.02 0.02 0.02 0.01 0.01 0.01 0.01 0.01 0.01 0.02 0.02 0.02 0.02 0.02
0.04 0.04 0.03 0.03 0.03 0.04 0.05 0.05 0.05 0.05 0.05 0.06 0.06 0.05 0.05 0.04 0.05 0.05 0.05 0.05 0.05 0.05 0.04 0.04 0.03 0.03 0.02 0.02 0.02 0.02 0.02 0.02 0.01 0.01 0.01 0.01 0.01 0.01 0.02 0.02 0.02 0.02 0.02
0.05 0.05 0.04 0.04 0.03 0.04 0.04 0.04 0.04 0.04 0.04 0.04 0.05 0.04 0.04 0.04 0.04 0.05 0.06 0.06 0.06 0.06 0.05 0.05 0.04 0.03 0.03 0.02 0.02 0.02 0.02 0.01 0.01 0.01 0.01 0.02 0.02 0.02 0.03 0.03 0.03 0.03 0.02
0.04 0.04 0.04 0.04 0.03 0.04 0.03 0.03 0.03 0.03 0.03 0.03 0.03 0.03 0.03 0.03 0.03 0.04 0.04 0.05 0.05 0.05 0.05 0.05 0.04 0.03 0.03 0.03 0.03 0.02 0.02 0.01 0.01 0.01 0.02 0.02 0.02 0.03 0.03 0.02 0.02 0.02 0.02
0.03 0.03 0.04 0.04 0.03 0.03 0.03 0.03 0.03 0.03 0.03 0.02 0.02 0.01 0.01 0.01 0.02 0.02 0.02 0.03 0.03 0.03 0.03 0.03 0.03 0.03 0.03 0.02 0.02 0.02 0.02 0.01 0.01 0.01 0.02 0.02 0.03 0.03 0.02 0.02 0.02 0.02 0.02
0.02 0.02 0.02 0.03 0.02 0.02 0.02 0.02 0.02 0.02 0.02 0.01 0.01 0.01 0.01 0.01 0.01 0.01 0.01 0.01 0.02 0.02 0.03 0.03 0.03 0.03 0.03 0.02 0.02 0.02 0.02 0.02 0.01 0.02 0.02 0.03 0.03 0.02 0.02 0.02 0.02 0.02 0.02
0.02 0.02 0.02 0.02 0.02 0.02 0.01 0.01 0.01 0.01 0.01 0.01 0.01 0.01 0.01 0.01 0.01 0.01 0.01 0.01 0.01 0.02 0.02 0.02 0.02 0.02 0.02 0.02 0.02 0.02 0.02 0.02 0.02 0.03 0.03 0.03 0.03 0.02 0.02 0.02 0.02 0.02 0.02
0.02 0.02 0.02 0.01 0.01 0.01 0.01 0.01 0.00 0.00 0.00 0.00 0.00 0.00 0.01 0.00 0.00 0.00 0.01 0.01 0.01 0.01 0.01 0.01 0.01 0.01 0.02 0.02 0.02 0.03 0.03 0.03 0.03 0.03 0.03 0.03 0.03 0.02 0.02 0.02 0.02 0.02 0.01
0.01 0.01 0.01 0.01 0.01 0.01 0.01 0.00 0.00 0.00 0.00 0.00 0.00 0.00 0.00 0.00 0.00 0.00 0.01 0.01 0.01 0.01 0.01 0.01 0.01 0.01 0.02 0.02 0.02 0.02 0.02 0.03 0.03 0.03 0.03 0.03 0.03 0.03 0.02 0.02 0.02 0.02 0.01
0.01 0.01 0.01 0.01 0.01 0.01 0.01 0.01 0.00 0.01 0.01 0.00 0.00 0.00 0.01 0.01 0.01 0.01 0.01 0.01 0.01 0.01 0.01 0.01 0.01 0.01 0.02 0.02 0.02 0.02 0.02 0.03 0.03 0.03 0.02 0.02 0.02 0.02 0.02 0.02 0.02 0.02 0.01
0.01 0.01 0.01 0.01 0.01 0.01 0.01 0.01 0.01 0.01 0.01 0.01 0.01 0.01 0.01 0.01 0.01 0.01 0.01 0.01 0.01 0.01 0.01 0.01 0.02 0.02 0.02 0.02 0.02 0.02 0.03 0.02 0.02 0.02 0.02 0.02 0.02 0.02 0.02 0.02 0.02 0.02 0.02
0.01 0.01 0.01 0.01 0.01 0.00 0.01 0.01 0.01 0.01 0.01 0.01 0.01 0.01 0.01 0.01 0.01 0.01 0.01 0.01 0.01 0.01 0.02 0.02 0.02 0.02 0.02 0.02 0.02 0.02 0.02 0.02 0.02 0.02 0.02 0.02 0.02 0.02 0.02 0.02 0.02 0.02 0.02
0.01 0.01 0.00 0.00 0.00 0.00 0.00 0.00 0.00 0.00 0.01 0.01 0.01 0.01 0.00 0.01 0.01 0.01 0.01 0.01 0.01 0.01 0.01 0.02 0.02 0.02 0.02 0.02 0.02 0.02 0.02 0.02 0.02 0.02 0.02 0.02 0.02 0.02 0.01 0.02 0.01 0.02 0.01
0.00 0.00 0.00 0.00 0.00 0.00 0.00 0.00 0.00 0.00 0.00 0.01 0.01 0.01 0.01 0.01 0.01 0.01 0.01 0.01 0.01 0.01 0.01 0.01 0.02 0.02 0.02 0.02 0.02 0.02 0.02 0.02 0.02 0.02 0.02 0.02 0.02 0.02 0.02 0.02 0.02 0.02 0.02
0.00 0.00 0.00 0.00 0.00 0.00 0.00 0.00 0.00 0.00 0.00 0.00 0.00 0.01 0.01 0.01 0.01 0.01 0.01 0.01 0.01 0.01 0.01 0.01 0.01 0.01 0.01 0.01 0.01 0.01 0.02 0.02 0.02 0.02 0.02 0.03 0.02 0.02 0.02 0.02 0.02 0.02 0.02
0.00 0.00 0.00 0.00 0.00 0.01 0.01 0.00 0.00 0.00 0.00 0.00 0.00 0.00 0.00 0.01 0.01 0.01 0.01 0.01 0.01 0.01 0.01 0.01 0.01 0.01 0.01 0.01 0.01 0.01 0.02 0.02 0.02 0.02 0.03 0.03 0.02 0.02 0.02 0.02 0.02 0.02 0.02
MSLP
1014.19 1014.32 1014.51 1014.74 1014.96 1015.15 1015.29 1015.38 1015.41 1015.42 1015.39 1015.35 1015.31 1015.27 1015.25 1015.25 1015.29 1015.37 1015.52 1015.74 1016.03 1016.40 1016.81 1017.26 1017.71 1018.15 1018.57 1018.94 1019.28 1019.59 1019.90 1020.22 1020.56 1020.92 1021.29 1021.65 1021.99 1022.29 1022.52 1022.68 1022.78 1022.84 1022.87
1014.05 1014.12 1014.29 1014.50 1014.73 1014.96 1015.15 1015.30 1015.41 1015.48 1015.52 1015.53 1015.53 1015.53 1015.54 1015.57 1015.63 1015.73 1015.90 1016.13 1016.42 1016.76 1017.14 1017.54 1017.94 1018.33 1018.68 1019.00 1019.30 1019.59 1019.88 1020.20 1020.53 1020.90 1021.27 1021.64 1021.98 1022.28 1022.50 1022.67 1022.77 1022.82 1022.85
1013.96 1013.97 1014.08 1014.26 1014.48 1014.71 1014.94 1015.13 1015.30 1015.43 1015.52 1015.59 1015.65 1015.69 1015.74 1015.81 1015.90 1016.04 1016.23 1016.48 1016.77 1017.11 1017.47 1017.83 1018.18 1018.51 1018.82 1019.09 1019.36 1019.62 1019.89 1020.19 1020.53 1020.89 1021.26 1021.62 1021.96 1022.25 1022.48 1022.64 1022.75 1022.81 1022.85
1013.90 1013.85 1013.90 1014.03 1014.21 1014.43 1014.66 1014.88 1015.09 1015.27 1015.42 1015.54 1015.65 1015.74 1015.84 1015.95 1016.09 1016.26 1016.48 1016.74 1017.04 1017.37 1017.71 1018.05 1018.37 1018.66 1018.93 1019.17 1019.41 1019.65 1019.91 1020.20 1020.52 1020.87 1021.23 1021.59 1021.92 1022.21 1022.44 1022.61 1022.74 1022.82 1022.89
1013.84 1013.73 1013.71 1013.78 1013.92 1014.11 1014.33 1014.56 1014.80 1015.02 1015.22 1015.40 1015.56 1015.70 1015.84 1015.99 1016.17 1016.37 1016.61 1016.88 1017.19 1017.51 1017.84 1018.16 1018.46 1018.73 1018.98 1019.21 1019.43 1019.66 1019.91 1020.20 1020.51 1020.85 1021.21 1021.56 1021.88 1022.17 1022.41 1022.60 1022.74 1022.86 1022.96
1013.74 1013.58 1013.51 1013.51 1013.59 1013.74 1013.95 1014.19 1014.44 1014.70 1014.95 1015.17 1015.38 1015.58 1015.76 1015.95 1016.15 1016.38 1016.63 1016.91 1017.21 1017.53 1017.85 1018.16 1018.45 1018.72 1018.97 1019.20 1019.43 1019.66 1019.92 1020.21 1020.52 1020.86 1021.20 1021.54 1021.86 1022.15 1022.39 1022.60 1022.77 1022.91 1023.04
1013.58 1013.39 1013.25 1013.20 1013.23 1013.35 1013.53 1013.77 1014.04 1014.33 1014.62 1014.90 1015.16 1015.40 1015.63 1015.85 1016.07 1016.31 1016.57 1016.85 1017.16 1017.47 1017.79 1018.10 1018.40 1018.67 1018.93 1019.18 1019.43 1019.68 1019.95 1020.25 1020.57 1020.90 1021.24 1021.57 1021.88 1022.16 1022.41 1022.62 1022.81 1022.97 1023.13
1013.37 1013.14 1012.96 1012.86 1012.85 1012.93 1013.10 1013.33 1013.63 1013.95 1014.28 1014.61 1014.92 1015.20 1015.46 1015.71 1015.95 1016.21 1016.47 1016.76 1017.06 1017.38 1017.70 1018.02 1018.33 1018.63 1018.92 1019.20 1019.47 1019.75 1020.04 1020.35 1020.67 1020.99 1021.32 1021.64 1021.94 1022.21 1022.46 1022.67 1022.87 1023.05 1023.21
1013.11 1012.85 1012.64 1012.50 1012.46 1012.52 1012.67 1012.92 1013.23 1013.58 1013.95 1014.32 1014.67 1014.99 1015.29 1015.56 1015.83 1016.09 1016.37 1016.67 1016.98 1017.31 1017.65 1017.99 1018.33 1018.65 1018.97 1019.28 1019.58 1019.88 1020.19 1020.50 1020.82 1021.14 1021.46 1021.76 1022.04 1022.30 1022.53 1022.75 1022.94 1023.12 1023.29
1012.87 1012.59 1012.35 1012.18 1012.11 1012.15 1012.30 1012.55 1012.88 1013.25 1013.65 1014.05 1014.44 1014.80 1015.12 1015.43 1015.72 1016.01 1016.30 1016.62 1016.95 1017.30 1017.67 1018.04 1018.40 1018.76 1019.11 1019.44 1019.77 1020.08 1020.40 1020.71 1021.03 1021.33 1021.63 1021.91 1022.18 1022.42 1022.64 1022.84 1023.02 1023.19 1023.35
1012.70 1012.39 1012.13 1011.94 1011.86 1011.89 1012.04 1012.28 1012.62 1013.01 1013.42 1013.85 1014.25 1014.64 1014.99 1015.32 1015.64 1015.96 1016.28 1016.63 1016.99 1017.37 1017.77 1018.17 1018.57 1018.95 1019.32 1019.67 1020.01 1020.33 1020.64 1020.95 1021.25 1021.53 1021.81 1022.08 1022.32 1022.55 1022.75 1022.94 1023.11 1023.27 1023.41
1012.64 1012.31 1012.04 1011.84 1011.75 1011.77 1011.91 1012.15 1012.48 1012.87 1013.29 1013.72 1014.13 1014.53 1014.90 1015.26 1015.60 1015.95 1016.32 1016.70 1017.10 1017.52 1017.95 1018.38 1018.80 1019.20 1019.58 1019.93 1020.27 1020.58 1020.88 1021.17 1021.45 1021.73 1021.99 1022.24 1022.47 1022.69 1022.88 1023.05 1023.21 1023.35 1023.48
1012.73 1012.39 1012.11 1011.91 1011.82 1011.84 1011.97 1012.20 1012.51 1012.88 1013.28 1013.69 1014.10 1014.49 1014.87 1015.24 1015.61 1015.99 1016.39 1016.81 1017.25 1017.70 1018.16 1018.62 1019.05 1019.46 1019.84 1020.19 1020.51 1020.81 1021.09 1021.36 1021.62 1021.89 1022.14 1022.39 1022.62 1022.83 1023.02 1023.19 1023.34 1023.46 1023.57
1012.98 1012.65 1012.38 1012.19 1012.09 1012.10 1012.22 1012.43 1012.72 1013.05 1013.42 1013.80 1014.18 1014.55 1014.92 1015.29 1015.68 1016.08 1016.50 1016.95 1017.42 1017.90 1018.38 1018.85 1019.29 1019.70 1020.07 1020.40 1020.70 1020.98 1021.24 1021.50 1021.76 1022.02 1022.28 1022.53 1022.78 1023.00 1023.19 1023.36 1023.50 1023.60 1023.67
1013.39 1013.08 1012.83 1012.65 1012.57 1012.58 1012.68 1012.86 1013.11 1013.40 1013.71 1014.04 1014.38 1014.72 1015.06 1015.42 1015.79 1016.20 1016.64 1017.10 1017.59 1018.08 1018.57 1019.04 1019.47 1019.87 1020.23 1020.54 1020.83 1021.09 1021.35 1021.61 1021.87 1022.14 1022.42 1022.69 1022.95 1023.19 1023.40 1023.56 1023.68 1023.76 1023.80
1013.92 1013.65 1013.43 1013.28 1013.21 1013.23 1013.32 1013.47 1013.67 1013.90 1014.16 1014.42 1014.70 1014.99 1015.29 1015.62 1015.98 1016.37 1016.80 1017.26 1017.75 1018.24 1018.72 1019.17 1019.60 1019.98 1020.32 1020.62 1020.90 1021.16 1021.42 1021.69 1021.97 1022.27 1022.57 1022.87 1023.16 1023.41 1023.62 1023.78 1023.88 1023.93 1023.91
1014.53 1014.31 1014.14 1014.03 1013.98 1014.00 1014.08 1014.20 1014.35 1014.53 1014.72 1014.92 1015.13 1015.36 1015.62 1015.90 1016.22 1016.58 1016.99 1017.43 1017.89 1018.36 1018.82 1019.26 1019.66 1020.03 1020.36 1020.65 1020.93 1021.21 1021.48 1021.78 1022.09 1022.41 1022.75 1023.08 1023.38 1023.64 1023.85 1023.99 1024.06 1024.05 1023.98
1015.20 1015.03 1014.91 1014.84 1014.82 1014.84 1014.90 1014.99 1015.10 1015.23 1015.36 1015.49 1015.65 1015.81 1016.01 1016.24 1016.52 1016.84 1017.20 1017.61 1018.03 1018.47 1018.90 1019.31 1019.69 1020.04 1020.37 1020.67 1020.96 1021.25 1021.55 1021.87 1022.21 1022.57 1022.92 1023.26 1023.57 1023.83 1024.02 1024.13 1024.15 1024.09 1023.96
1015.88 1015.77 1015.70 1015.66 1015.65 1015.68 1015.73 1015.79 1015.86 1015.93 1016.01 1016.09 1016.18 1016.29 1016.44 1016.62 1016.84 1017.11 1017.43 1017.79 1018.17 1018.57 1018.96 1019.34 1019.71 1020.05 1020.37 1020.67 1020.98 1021.29 1021.61 1021.96 1022.32 1022.68 1023.05 1023.38 1023.68 1023.91 1024.06 1024.13 1024.10 1023.98 1023.78
1016.57 1016.50 1016.46 1016.44 1016.44 1016.46 1016.49 1016.52 1016.56 1016.59 1016.62 1016.65 1016.70 1016.76 1016.85 1016.99 1017.17 1017.39 1017.66 1017.97 1018.30 1018.66 1019.02 1019.37 1019.72 1020.05 1020.36 1020.67 1020.99 1021.31 1021.65 1022.00 1022.36 1022.72 1023.06 1023.37 1023.63 1023.82 1023.92 1023.93 1023.84 1023.67 1023.41
1017.24 1017.20 1017.17 1017.15 1017.14 1017.14 1017.15 1017.15 1017.15 1017.14 1017.13 1017.13 1017.13 1017.16 1017.22 1017.31 1017.45 1017.63 1017.86 1018.12 1018.42 1018.73 1019.06 1019.39 1019.71 1020.03 1020.34 1020.65 1020.96 1021.28 1021.61 1021.95 1022.28 1022.61 1022.91 1023.16 1023.36 1023.49 1023.53 1023.48 1023.34 1023.12 1022.83
1017.88 1017.84 1017.80 1017.77 1017.73 1017.70 1017.67 1017.63 1017.60 1017.55 1017.52 1017.48 1017.46 1017.46 1017.49 1017.56 1017.66 1017.81 1018.00 1018.23 1018.49 1018.77 1019.07 1019.37 1019.67 1019.98 1020.28 1020.57 1020.87 1021.17 1021.46 1021.75 1022.04 1022.30 1022.53 1022.71 1022.84 1022.89 1022.87 1022.77 1022.59 1022.34 1022.04
1018.49 1018.42 1018.35 1018.28 1018.20 1018.12 1018.05 1017.97 1017.90 1017.83 1017.76 1017.70 1017.66 1017.65 1017.65 1017.70 1017.78 1017.90 1018.06 1018.26 1018.49 1018.75 1019.02 1019.30 1019.58 1019.86 1020.14 1020.41 1020.67 1020.93 1021.17 1021.39 1021.60 1021.78 1021.92 1022.02 1022.06 1022.04 1021.96 1021.81 1021.61 1021.37 1021.08
1019.05 1018.94 1018.81 1018.69 1018.56 1018.43 1018.31 1018.19 1018.08 1017.98 1017.89 1017.81 1017.76 1017.72 1017.71 1017.74 1017.80 1017.90 1018.04 1018.22 1018.42 1018.65 1018.90 1019.16 1019.42 1019.68 1019.92 1020.15 1020.36 1020.55 1020.72 1020.87 1020.98 1021.06 1021.11 1021.12 1021.08 1020.99 1020.87 1020.70 1020.50 1020.27 1020.02
1019.54 1019.37 1019.19 1019.01 1018.83 1018.65 1018.49 1018.33 1018.19 1018.06 1017.95 1017.85 1017.78 1017.73 1017.70 1017.71 1017.75 1017.83 1017.94 1018.09 1018.28 1018.49 1018.71 1018.94 1019.18 1019.40 1019.61 1019.79 1019.94 1020.06 1020.15 1020.20 1020.22 1020.21 1020.16 1020.08 1019.98 1019.85 1019.69 1019.52 1019.33 1019.14 1018.95
1019.96 1019.73 1019.50 1019.27 1019.04 1018.83 1018.63 1018.45 1018.28 1018.13 1018.00 1017.88 1017.78 1017.70 1017.65 1017.63 1017.64 1017.69 1017.78 1017.91 1018.06 1018.25 1018.45 1018.66 1018.86 1019.05 1019.21 1019.34 1019.43 1019.48 1019.49 1019.45 1019.38 1019.29 1019.16 1019.01 1018.85 1018.69 1018.53 1018.37 1018.21 1018.07 1017.94
Thickness
5505 5503 5502 5502 5501 5501 5502 5503 5504 5505 5506 5507 5508 5509 5510 5511 5513 5515 5516 5518 5520 5520 5521 5523 5523 5524 5525 5526 5528 5528 5529 5529 5528 5527 5525 5525 5525 5524 5523 5522 5520 5518 5515
5498 5497 5496 5495 5494 5494 5495 5496 5497 5498 5499 5499 5500 5501 5502 5503 5505 5505 5506 5507 5509 5511 5512 5512 5513 5514 5514 5516 5516 5517 5518 5518 5517 5516 5513 5513 5513 5512 5511 5510 5508 5506 5503
5492 5491 5489 5488 5487 5487 5488 5489 5489 5490 5491 5492 5493 5494 5495 5495 5496 5496 5497 5498 5500 5502 5503 5503 5504 5504 5504 5505 5505 5505 5506 5507 5505 5504 5503 5501 5500 5499 5498 5497 5495 5493 5490
5486 5484 5483 5482 5481 5481 5481 5482 5482 5483 5484 5485 5486 5486 5486 5487 5488 5488 5488 5490 5491 5492 5493 5495 5495 5495 5495 5495 5495 5495 5494 5494 5493 5492 5491 5489 5487 5486 5485 5484 5482 5479 5477
5481 5479 5478 5476 5475 5474 5474 5474 5475 5476 5476 5477 5477 5478 5478 5479 5480 5481 5481 5482 5482 5483 5484 5485 5486 5486 5487 5486 5486 5485 5484 5483 5481 5480 5478 5476 5474 5472 5472 5471 5469 5466 5464
5475 5473 5471 5470 5469 5468 5467 5467 5467 5468 5468 5469 5470 5470 5470 5472 5473 5474 5474 5475 5475 5476 5476 5476 5476 5476 5477 5478 5478 5478 5476 5474 5472 5469 5467 5466 5464 5462 5460 5458 5454 5451 5450
5468 5466 5464 5463 5462 5461 5460 5460 5459 5460 5460 5461 5462 5462 5463 5464 5465 5466 5466 5466 5467 5467 5467 5467 5467 5468 5467 5467 5468 5467 5466 5465 5463 5461 5458 5457 5454 5452 5449 5445 5441 5438 5437
5461 5458 5457 5456 5455 5454 5453 5452 5452 5452 5453 5453 5454 5454 5455 5455 5456 5457 5458 5457 5457 5458 5458 5458 5458 5458 5457 5457 5456 5455 5454 5453 5452 5451 5449 5448 5445 5442 5438 5434 5430 5425 5421
5453 5451 5450 5448 5447 5446 5445 5445 5444 5445 5445 5445 5445 5446 5446 5447 5448 5449 5450 5449 5448 5449 5449 5450 5449 5448 5448 5447 5446 5444 5443 5441 5440 5439 5437 5435 5432 5429 5425 5419 5414 5410 5408
5445 5444 5442 5441 5440 5438 5438 5437 5437 5437 5436 5436 5436 5436 5437 5438 5440 5441 5441 5440 5440 5440 5440 5440 5440 5440 5439 5437 5435 5433 5431 5430 5428 5426 5424 5421 5418 5415 5412 5408 5403 5398 5394
5437 5435 5434 5433 5432 5430 5429 5429 5428 5428 5427 5426 5427 5427 5428 5429 5431 5432 5431 5431 5431 5430 5430 5430 5430 5430 5429 5427 5425 5423 5422 5419 5416 5413 5410 5407 5404 5401 5398 5394 5391 5386 5380
5427 5426 5424 5423 5422 5421 5419 5419 5418 5417 5416 5415 5416 5416 5417 5418 5419 5421 5422 5422 5422 5421 5421 5420 5419 5418 5417 5415 5414 5412 5410 5407 5403 5399 5396 5393 5390 5387 5384 5380 5376 5372 5368
5417 5415 5413 5412 5411 5410 5409 5408 5407 5406 5405 5405 5405 5405 5406 5406 5407 5409 5411 5411 5411 5410 5410 5410 5408 5407 5406 5404 5402 5400 5397 5393 5389 5386 5384 5381 5378 5374 5370 5365 5361 5356 5352
5406 5404 5403 5401 5400 5399 5397 5397 5396 5395 5395 5395 5395 5395 5395 5395 5396 5397 5398 5398 5399 5398 5397 5397 5397 5395 5393 5391 5389 5387 5384 5381 5377 5374 5372 5368 5364 5360 5355 5351 5346 5341 5338
5394 5392 5391 5390 5389 5387 5386 5385 5385 5386 5386 5385 5385 5385 5385 5386 5386 5387 5387 5387 5387 5386 5385 5384 5383 5381 5379 5377 5375 5373 5371 5368 5365 5361 5358 5355 5351 5347 5342 5337 5333 5328 5324
5383 5381 5379 5378 5376 5375 5375 5374 5374 5375 5376 5376 5376 5376 5376 5377 5377 5377 5377 5377 5377 5376 5374 5372 5370 5369 5367 5365 5363 5361 5358 5355 5352 5349 5346 5342 5339 5334 5330 5325 5321 5317 5313
5370 5369 5367 5366 5365 5364 5364 5363 5363 5364 5364 5364 5365 5365 5365 5366 5366 5366 5366 5366 5365 5364 5361 5360 5358 5357 5355 5353 5351 5348 5346 5343 5341 5338 5334 5330 5326 5322 5318 5314 5310 5306 5303
5358 5357 5356 5354 5353 5352 5351 5350 5350 5351 5352 5351 5352 5353 5353 5354 5355 5354 5353 5353 5351 5350 5348 5347 5346 5344 5343 5341 5339 5337 5335 5332 5329 5326 5322 5318 5315 5311 5307 5303 5300 5296 5293
5346 5344 5344 5342 5341 5341 5340 5339 5339 5339 5339 5339 5340 5341 5341 5342 5342 5341 5340 5339 5338 5337 5336 5335 5334 5332 5331 5330 5328 5326 5323 5320 5317 5314 5311 5307 5304 5300 5297 5294 5291 5288 5285
5333 5333 5332 5331 5330 5329 5328 5328 5327 5327 5327 5327 5327 5327 5328 5328 5328 5328 5327 5326 5325 5324 5324 5323 5322 5321 5319 5318 5317 5315 5312 5309 5307 5303 5301 5297 5294 5291 5288 5285 5282 5279 5276
5319 5319 5320 5319 5318 5317 5317 5316 5315 5315 5314 5314 5314 5315 5316 5316 5316 5315 5314 5314 5313 5312 5312 5311 5311 5309 5308 5307 5305 5304 5301 5299 5297 5294 5291 5288 5285 5282 5280 5277 5275 5272 5269
5307 5306 5306 5306 5306 5305 5305 5304 5303 5303 5302 5302 5302 5303 5304 5303 5303 5302 5302 5302 5301 5301 5300 5299 5299 5298 5297 5296 5295 5293 5292 5290 5287 5285 5282 5279 5277 5274 5272 5269 5266 5264 5261
5295 5295 5294 5294 5294 5294 5294 5293 5292 5291 5290 5290 5290 5291 5291 5291 5290 5290 5290 5290 5290 5289 5289 5288 5288 5287 5286 5286 5285 5284 5283 5282 5280 5277 5275 5272 5269 5266 5264 5262 5259 5256 5254
5284 5283 5283 5282 5282 5281 5281 5280 5280 5279 5279 5279 5279 5279 5279 5279 5279 5279 5278 5278 5278 5278 5278 5278 5278 5277 5277 5277 5276 5276 5275 5274 5272 5270 5267 5265 5262 5259 5257 5255 5252 5250 5247
5272 5272 5271 5271 5270 5269 5269 5268 5268 5267 5267 5267 5267 5267 5267 5267 5267 5267 5267 5268 5268 5268 5269 5269 5269 5268 5268 5268 5267 5267 5266 5265 5264 5262 5260 5258 5256 5253 5251 5248 5246 5243 5241
5261 5260 5260 5259 5258 5258 5257 5257 5256 5256 5255 5255 5255 5255 5255 5255 5256 5256 5257 5258 5258 5259 5259 5260 5260 5260 5260 5259 5259 5259 5258 5258 5257 5255 5254 5252 5249 5247 5244 5243 5240 5238 5235